Regional Weather Roundup
Issued by NWS

Home | Current Version | Previous Version | Graphics & Text | Print | Product List | Glossary On
Versions: 1 2 3 4 5 6 7 8 9 10 11 12 13 14 15 16 17 18 19 20 21 22 23 24 25 26 27 28 29 30 31 32 33 34 35 36 37 38 39 40 41 42 43 44 45 46 47 48 49 50
000
ASUS43 KTOP 240359
RWRKS

WEATHER ROUNDUP FOR KANSAS
NATIONAL WEATHER SERVICE GOODLAND KS
1000 PM CST THU NOV 23 2017

NOTE:  "FAIR" INDICATES FEW OR NO CLOUDS BELOW 12,000 FEET WITH NO
SIGNIFICANT WEATHER AND/OR OBSTRUCTIONS TO VISIBILITY.

KSZ001>006-013>018-027>032-041>047-240500-
NORTHWEST KANSAS

CITY           SKY/WX    TMP DP  RH WIND       PRES   REMARKS
GOODLAND       CLOUDY    55  35  47 SW16      29.88F
HAYS           CLEAR     53  40  61 SW14      29.85F
HILL CITY      PTCLDY    56  41  57 W8        29.84F
RUSSELL        PTCLDY    55  41  59 S15       29.84F
$$

KSZ061>065-074>080-084>089-240500-
SOUTHWEST KANSAS

CITY           SKY/WX    TMP DP  RH WIND       PRES   REMARKS
DODGE CITY     CLOUDY    51  37  58 S8        29.92F
GARDEN CITY    CLOUDY    50  37  61 S9        29.92F
GREAT BEND     CLOUDY    54  39  57 SW13      29.89F
LIBERAL        CLOUDY    51  38  60 SW9       29.95F
$$

KSZ066>073-081>083-090>101-240500-
SOUTHEAST KANSAS

CITY           SKY/WX    TMP DP  RH WIND       PRES   REMARKS
CHANUTE        CLOUDY    50  32  50 S9        29.95F
COFFEYVILLE    CLOUDY    46  32  58 S3        29.96F
HUTCHINSON     CLOUDY    50  38  63 S6        29.90F
MEDICINE LODGE   N/A     53  38  56 S6        29.92F
NEWTON         PTCLDY    54  36  50 S13       29.91F
PARSONS        CLOUDY    46  32  58 CALM      29.96F
WICHITA INTL   CLOUDY    50  37  61 S9        29.91F
WICHITA JABRA  CLOUDY    54  37  52 S10       29.90F
WICHITA MCCONL CLEAR     52  35  51 SW12      29.91F
WINFIELD       CLEAR     48  35  60 S5        29.94F
$$

KSZ007>012-019>026-033>040-048>060-102>105-240500-
NORTHEAST KANSAS

CITY           SKY/WX    TMP DP  RH WIND       PRES   REMARKS
CONCORDIA      PTCLDY    59  40  49 S18       29.81F
EMPORIA        MOCLDY    51  35  54 S10       29.90F
LAWRENCE       MOCLDY    48  38  68 E7        29.89F
MANHATTAN      PTCLDY    46  37  71 CALM      29.86F
OLATHE IND     CLOUDY    48  36  63 S7        29.91F
OLATHE EXE     CLOUDY    49  35  58 S7        29.90F
SALINA         PTCLDY    55  40  56 S7        29.86F
TOPEKA BILLARD CLOUDY    56  37  49 S9        29.87F
TOPEKA FORBES  CLOUDY    56  37  49 S10       29.88F
$$



USA.gov is the U.S. government's official web portal to all federal, state and local government web resources and services.